DW3807 Weather Reports


time (UTC)temp
F
wind
direction
speed
knots
gust
knots
rain 1hr
in
rain 24hr
in
rain mn
in
humidity
%
barometer
mb
20260503022022 38 271 0.0 0.9 0.00 0.00 0.00 71 1016.5
20260503021541 38 251 0.9 1.7 0.00 0.00 0.00 71 1016.5
20260503021021 39 248 0.9 0.9 0.00 0.00 0.00 71 1016.5
20260503020518 39 259 0.0 1.7 0.00 0.00 0.00 70 1016.5
20260503020019 39 243 0.0 1.7 0.00 0.00 0.00 69 1016.5
20260503015601 39 273 0.0 1.7 0.00 0.00 0.00 68 1016.5
20260503015021 39 251 0.0 1.7 0.00 0.00 0.00 68 1016.4
20260503014523 40 243 0.0 1.7 0.00 0.00 0.00 67 1016.4
20260503014022 40 232 0.9 1.7 0.00 0.00 0.00 66 1016.4
20260503013522 40 259 0.0 0.9 0.00 0.00 0.00 65 1016.4
20260503013021 40 235 0.0 1.7 0.00 0.00 0.00 65 1016.3
20260503012523 41 256 0.9 1.7 0.00 0.00 0.00 65 1016.3
20260503012019 41 250 0.9 1.7 0.00 0.00 0.00 64 1016.3
20260503011519 41 276 0.0 1.7 0.00 0.00 0.00 63 1016.3
20260503011022 42 303 0.9 1.7 0.00 0.00 0.00 62 1016.3
20260503010519 42 290 0.0 0.9 0.00 0.00 0.00 61 1016.3
20260503010019 42 282 0.0 0.9 0.00 0.00 0.00 60 1016.3
20260503005519 43 290 0.0 0.9 0.00 0.00 0.00 59 1016.3
20260503005040 43 267 0.0 0.9 0.00 0.00 0.00 59 1016.3
20260503004519 44 245 0.9 1.7 0.00 0.00 0.00 58 1016.3
20260503004100 44 211 0.9 1.7 0.00 0.00 0.00 57 1016.3
20260503003521 45 226 0.9 2.6 0.00 0.00 0.00 57 1016.3
20260503003019 45 207 0.9 1.7 0.00 0.00 0.00 56 1016.3
20260503002523 46 210 0.9 1.7 0.00 0.00 0.00 55 1016.2
20260503002019 46 159 0.9 2.6 0.00 0.00 0.00 55 1016.2
20260503001521 46 199 0.9 2.6 0.00 0.00 0.00 54 1016.2
20260503001020 47 237 0.9 2.6 0.00 0.00 0.00 53 1016.2
20260503000520 47 270 0.9 2.6 0.00 0.00 0.00 52 1016.2
20260503000021 48 268 0.9 1.7 0.00 0.00 0.00 52 1016.2
20260502235520 48 212 1.7 4.3 0.00 0.00 0.00 50 1016.2
20260502235020 48 300 0.9 2.6 0.00 0.00 0.00 49 1016.2
20260502234520 48 232 0.9 4.3 0.00 0.00 0.00 48 1016.2
20260502234021 49 247 1.7 4.3 0.00 0.00 0.00 48 1016.2
20260502233520 49 260 1.7 3.5 0.00 0.00 0.00 49 1016.2
20260502233020 49 233 1.7 4.3 0.00 0.00 0.00 48 1016.3
20260502232542 50 333 0.9 3.5 0.00 0.00 0.00 47 1016.3
20260502232040 50 325 1.7 4.3 0.00 0.00 0.00 48 1016.3
20260502231521 50 227 1.7 4.3 0.00 0.00 0.00 46 1016.3
20260502231021 51 287 1.7 4.3 0.00 0.00 0.00 46 1016.4
20260502230522 51 252 1.7 3.5 0.00 0.00 0.00 46 1016.4
20260502230021 51 307 1.7 3.5 0.00 0.00 0.00 46 1016.4
20260502225521 51 317 1.7 4.3 0.00 0.00 0.00 46 1016.4
20260502225019 51 299 2.6 5.2 0.00 0.00 0.00 46 1016.4
20260502224521 51 355 1.7 7.0 0.00 0.00 0.00 46 1016.5
20260502224021 51 317 1.7 5.2 0.00 0.00 0.00 46 1016.5
20260502223521 51 283 3.5 6.1 0.00 0.00 0.00 46 1016.5
20260502223022 51 342 2.6 5.2 0.00 0.00 0.00 47 1016.5
20260502222521 50 322 1.7 3.5 0.00 0.00 0.00 47 1016.6
20260502222021 50 298 2.6 6.1 0.00 0.00 0.00 47 1016.6
20260502221523 50 268 2.6 10.4 0.00 0.00 0.00 47 1016.6
20260502221019 50 287 2.6 7.0 0.00 0.00 0.00 47 1016.6
20260502220538 51 281 2.6 7.0 0.00 0.00 0.00 47 1016.7
20260502220018 51 306 2.6 7.8 0.00 0.00 0.00 47 1016.6
20260502215523 52 326 2.6 7.0 0.00 0.00 0.00 48 1016.6
20260502215022 52 303 2.6 6.1 0.00 0.00 0.00 48 1016.6
20260502214642 52 158 1.7 3.5 0.00 0.00 0.00 48 1016.7
20260502214043 51 250 1.7 5.2 0.00 0.00 0.00 48 1016.7
20260502213539 50 300 2.6 5.2 0.00 0.00 0.00 50 1016.7
20260502213039 50 342 1.7 4.3 0.00 0.00 0.00 50 1016.7
20260502212519 50 303 2.6 7.0 0.00 0.00 0.00 49 1016.6
20260502212021 50 306 2.6 7.0 0.00 0.00 0.00 50 1016.7
20260502211519 51 303 3.5 7.0 0.00 0.00 0.00 49 1016.7
20260502211019 51 334 2.6 7.0 0.00 0.00 0.00 50 1016.7
20260502210520 51 307 2.6 6.1 0.00 0.00 0.00 49 1016.8
20260502210019 50 179 2.6 6.1 0.00 0.00 0.00 50 1016.8
20260502205519 50 253 2.6 8.7 0.00 0.00 0.00 51 1016.9
20260502205019 50 279 3.5 7.8 0.00 0.00 0.00 50 1016.9
20260502204522 51 298 2.6 6.1 0.00 0.00 0.00 51 1016.9
20260502204019 51 294 3.5 7.8 0.00 0.00 0.00 51 1017.0
20260502203519 50 296 3.5 6.1 0.00 0.00 0.00 50 1017.0
20260502203040 50 303 3.5 8.7 0.00 0.00 0.00 52 1017.1
20260502202521 50 273 3.5 7.0 0.00 0.00 0.00 51 1017.2
20260502202019 50 278 2.6 6.1 0.00 0.00 0.00 51 1017.2
20260502201519 50 286 3.5 8.7 0.00 0.00 0.00 52 1017.2
20260502201020 50 281 2.6 7.0 0.00 0.00 0.00 51 1017.3
20260502200521 50 318 2.6 7.8 0.00 0.00 0.00 53 1017.4
20260502200019 50 306 4.3 8.7 0.00 0.00 0.00 53 1017.4
20260502195521 51 307 3.5 7.0 0.00 0.00 0.00 52 1017.4
20260502195019 50 324 3.5 10.4 0.00 0.00 0.00 52 1017.5
20260502194519 50 276 3.5 8.7 0.00 0.00 0.00 52 1017.5
20260502194020 49 246 2.6 7.0 0.00 0.00 0.00 53 1017.6
20260502193521 49 290 2.6 8.7 0.00 0.00 0.00 54 1017.7
20260502193020 49 248 2.6 6.1 0.00 0.00 0.00 53 1017.7
20260502192540 49 276 2.6 7.0 0.00 0.00 0.00 55 1017.8
20260502192024 48 321 2.6 7.0 0.00 0.00 0.00 54 1017.8
20260502191521 48 285 2.6 6.1 0.00 0.00 0.00 54 1017.8
20260502191022 49 320 3.5 7.8 0.00 0.00 0.00 54 1017.8
20260502190521 48 235 2.6 6.1 0.00 0.00 0.00 54 1017.9
20260502190018 48 287 1.7 6.1 0.00 0.00 0.00 54 1018.0
20260502185519 48 310 2.6 5.2 0.00 0.00 0.00 55 1018.0
20260502185020 48 310 2.6 6.1 0.00 0.00 0.00 55 1018.0
20260502184520 48 300 2.6 6.1 0.00 0.00 0.00 54 1018.0
20260502184020 49 308 2.6 6.1 0.00 0.00 0.00 53 1018.0
20260502183525 49 292 2.6 5.2 0.00 0.00 0.00 53 1018.1
20260502182521 49 309 3.5 8.7 0.00 0.00 0.00 54 1018.0
20260502182018 48 259 2.6 6.1 0.00 0.00 0.00 55 1018.1
20260502181520 48 246 2.6 7.8 0.00 0.00 0.00 54 1018.2
20260502181018 48 220 1.7 5.2 0.00 0.00 0.00 54 1018.2
20260502180619 47 283 2.6 5.2 0.00 0.00 0.00 55 1018.3
20260502164020 45 295 1.7 6.1 0.00 0.00 0.00 60 1019.0
20260502163520 45 274 2.6 6.1 0.00 0.00 0.00 60 1019.0
20260502163021 45 259 1.7 6.1 0.00 0.00 0.00 60 1019.1
20260502162520 44 238 1.7 5.2 0.00 0.00 0.00 61 1019.2
20260502162020 45 273 2.6 7.0 0.00 0.00 0.00 60 1019.2
20260502161600 45 273 1.7 6.1 0.00 0.00 0.00 60 1019.2
20260502161022 46 307 2.6 7.8 0.00 0.00 0.00 58 1019.2
20260502160521 46 315 2.6 7.8 0.00 0.00 0.00 56 1019.1
20260502152023 45 329 1.7 6.1 0.00 0.00 0.00 59 1019.2
20260502151541 45 10 2.6 6.1 0.00 0.00 0.00 60 1019.2
20260502151021 45 325 2.6 5.2 0.00 0.00 0.00 59 1019.2
20260502150521 45 324 2.6 5.2 0.00 0.00 0.00 59 1019.2
20260502130520 40 34 2.6 7.0 0.00 0.00 0.00 75 1019.5
20260502123540 41 32 2.6 5.2 0.00 0.00 0.00 79 1019.5
20260502123020 40 344 1.7 4.3 0.00 0.00 0.00 81 1019.5
20260502122522 40 335 1.7 3.5 0.00 0.00 0.00 82 1019.4
20260502122020 40 5 1.7 3.5 0.00 0.00 0.00 84 1019.4
20260502121540 39 8 1.7 4.3 0.00 0.00 0.00 83 1019.4
20260502121041 39 331 1.7 3.5 0.00 0.00 0.00 85 1019.4
20260502120522 39 20 1.7 3.5 0.00 0.00 0.00 87 1019.3
20260502115521 38 325 0.9 2.6 0.00 0.00 0.00 88 1019.3
20260502115024 38 309 0.9 3.5 0.00 0.00 0.00 89 1019.2
20260502114518 38 307 0.9 2.6 0.00 0.00 0.00 90 1019.2
20260502114018 37 283 0.0 0.9 0.00 0.00 0.00 91 1019.1
20260502113521 36 282 0.0 1.7 0.00 0.00 0.00 91 1019.1
20260502113043 34 300 0.0 0.9 0.00 0.00 0.00 91 1019.1
20260502112520 34 276 0.9 2.6 0.00 0.00 0.00 92 1019.0
20260502112020 33 255 0.0 0.9 0.00 0.00 0.00 92 1019.0
20260502111522 32 280 0.0 0.9 0.00 0.00 0.00 92 1019.0
20260502111018 31 278 0.0 0.9 0.00 0.00 0.00 92 1019.0
20260502110539 31 254 0.9 0.9 0.00 0.00 0.00 92 1018.9
20260502110017 30 253 0.9 1.7 0.00 0.00 0.00 92 1018.9
20260502105519 30 278 0.9 1.7 0.00 0.00 0.00 91 1018.9
20260502105018 30 306 0.9 0.9 0.00 0.00 0.00 91 1018.9
20260502104520 30 343 0.0 0.9 0.00 0.00 0.00 91 1018.9
20260502104044 30 337 0.9 0.9 0.00 0.00 0.00 91 1018.9
20260502103521 31 323 0.0 0.9 0.00 0.00 0.00 91 1018.9
20260502103039 31 303 0.9 0.9 0.00 0.00 0.00 91 1018.9
20260502102520 31 301 0.9 1.7 0.00 0.00 0.00 91 1018.9
20260502102039 31 276 0.9 1.7 0.00 0.00 0.00 91 1018.9
20260502101519 31 279 0.0 1.7 0.00 0.00 0.00 90 1018.9
20260502101020 32 285 0.9 0.9 0.00 0.00 0.00 90 1018.8
20260502100519 32 266 0.9 1.7 0.00 0.00 0.00 90 1018.8
20260502091521 33 260 0.9 1.7 0.00 0.00 0.00 88 1018.5
20260502091020 33 295 0.0 0.9 0.00 0.00 0.00 88 1018.5
20260502090520 33 271 0.9 0.9 0.00 0.00 0.00 88 1018.5
20260502071520 33 240 0.9 1.7 0.00 0.00 0.00 86 1018.3
20260502071039 33 266 0.9 1.7 0.00 0.00 0.00 85 1018.3
20260502070518 33 292 0.9 1.7 0.00 0.00 0.00 85 1018.3
20260502070019 33 283 0.9 1.7 0.00 0.00 0.00 85 1018.3
20260502065521 33 268 0.9 1.7 0.00 0.00 0.00 85 1018.3
20260502065039 33 270 0.9 1.7 0.00 0.00 0.00 84 1018.3
20260502064522 33 261 0.0 0.9 0.00 0.00 0.00 84 1018.4
20260502064103 33 254 0.9 0.9 0.00 0.00 0.00 84 1018.4
20260502063519 33 288 0.0 0.9 0.00 0.00 0.00 83 1018.4
20260502063022 33 287 0.9 1.7 0.00 0.00 0.00 83 1018.5
20260502062519 33 264 0.9 1.7 0.00 0.00 0.00 83 1018.5
20260502062020 33 283 0.0 0.9 0.00 0.00 0.00 83 1018.5
20260502061539 34 260 0.0 1.7 0.00 0.00 0.00 82 1018.6
20260502061019 34 246 0.9 1.7 0.00 0.00 0.00 82 1018.6
20260502060521 34 240 0.9 1.7 0.00 0.00 0.00 82 1018.6
20260502060019 34 247 0.9 1.7 0.00 0.00 0.00 82 1018.6
20260502055521 34 234 0.9 1.7 0.00 0.00 0.00 82 1018.7
20260502055019 34 242 0.9 1.7 0.00 0.00 0.00 81 1018.6
20260502054541 34 275 0.0 1.7 0.00 0.00 0.00 80 1018.6
20260502054019 34 276 0.9 1.7 0.00 0.00 0.00 79 1018.6
20260502053520 34 284 0.9 1.7 0.00 0.00 0.00 79 1018.5
20260502053021 34 309 0.9 1.7 0.00 0.00 0.00 79 1018.6
20260502052520 34 288 0.9 1.7 0.00 0.00 0.00 78 1018.6
20260502052020 34 295 0.9 1.7 0.00 0.00 0.00 78 1018.5
20260502051540 34 302 0.9 1.7 0.00 0.00 0.00 78 1018.5
20260502051021 34 311 0.9 1.7 0.00 0.00 0.00 77 1018.6
20260502050540 35 316 0.9 1.7 0.00 0.00 0.00 77 1018.6
20260502050017 35 311 0.9 1.7 0.00 0.00 0.00 77 1018.5
20260502045519 35 314 0.0 0.9 0.00 0.00 0.00 77 1018.5
20260502045017 35 291 0.9 1.7 0.00 0.00 0.00 77 1018.4
20260502044517 35 306 0.9 2.6 0.00 0.00 0.00 77 1018.3
20260502044022 35 296 0.9 5.2 0.00 0.00 0.00 76 1018.4
20260502043521 35 299 0.9 2.6 0.00 0.00 0.00 76 1018.4
20260502043020 35 294 0.9 2.6 0.00 0.00 0.00 76 1018.4
20260502042518 35 278 0.0 0.9 0.00 0.00 0.00 75 1018.3
20260502042022 35 304 0.9 2.6 0.00 0.00 0.00 75 1018.3
20260502041540 35 306 0.9 1.7 0.00 0.00 0.00 75 1018.3
20260502041021 35 297 0.9 2.6 0.00 0.00 0.00 74 1018.2
20260502040522 35 304 0.9 2.6 0.00 0.00 0.00 74 1018.2
20260502040021 36 315 0.9 2.6 0.00 0.00 0.00 74 1018.2
20260502035521 36 301 0.9 1.7 0.00 0.00 0.00 73 1018.2
20260502035101 36 316 0.9 2.6 0.00 0.00 0.00 73 1018.2
20260502034519 36 315 0.9 2.6 0.00 0.00 0.00 73 1018.1
20260502034018 36 320 0.9 2.6 0.00 0.00 0.00 72 1018.1
20260502033521 36 324 0.9 1.7 0.00 0.00 0.00 72 1018.1
20260502033022 36 333 1.7 5.2 0.00 0.00 0.00 71 1018.0
20260502032521 36 335 1.7 4.3 0.00 0.00 0.00 71 1018.0
20260502032022 36 332 0.9 3.5 0.00 0.00 0.00 70 1018.0
20260502031522 36 322 0.9 1.7 0.00 0.00 0.00 70 1018.1
20260502031020 36 325 0.9 2.6 0.00 0.00 0.00 69 1018.0
20260502030519 36 321 1.7 3.5 0.00 0.00 0.00 69 1018.0
20260502030019 37 308 0.9 2.6 0.00 0.00 0.00 68 1018.0
20260502025523 37 318 1.7 5.2 0.00 0.00 0.00 68 1018.0
20260502025022 37 313 0.9 2.6 0.00 0.00 0.00 68 1018.0
20260502024522 37 345 0.9 3.5 0.00 0.00 0.00 67 1017.9
20260502024022 37 354 0.9 3.5 0.00 0.00 0.00 67 1017.9
20260502023521 37 360 1.7 4.3 0.00 0.00 0.00 67 1017.9
20260502023019 38 351 1.7 6.1 0.00 0.00 0.00 67 1017.9
20260502022520 38 355 1.7 3.5 0.00 0.00 0.00 66 1017.9